Location: Владивосток
(43.1151°N, 131.8856°E)
Time: 20:22:10
(UTC+10:00)

DX 1 - Pass Details

Date: 05 July 2022
Orbit: 617 x 629 km, 98.4° (Epoch: 09 August)

Event Time Altitude Azimuth Distance (km) Brightness Sun altitude
Rises 22:30:43 0° 12° (NNE) 2,927 ? -13.8°
Reaches altitude 10° 22:32:55 10° 12° (NNE) 2,014 ? -14.1°
Maximum altitude 22:37:19 85° 286° (WNW) 635 ? -14.6°
Drops below altitude 10° 22:41:39 10° 197° (SSW) 1,991 ? -15.1°
Enters shadow 22:41:41 10° 197° (SSW) 2,002 ? -15.1°
